DW3765 Weather Reports


Display with metric or nautical units.
time (UTC)temp
F
wind
direction
speed
MPH
gust
MPH
rain 1hr
in
rain 24hr
in
rain mn
in
humidity
%
barometer
mb
20260503203649 77 134 9.0 19.0 0.00 0.00 0.00 40 1020.1
20260503203131 77 217 7.0 15.0 0.00 0.00 0.00 37 1020.2
20260503202643 77 158 6.0 15.0 0.00 0.00 0.00 38 1020.3
20260503202126 76 182 8.0 15.0 0.00 0.00 0.00 40 1020.4
20260503201657 76 192 8.0 15.0 0.00 0.00 0.00 39 1020.6
20260503201147 76 194 7.0 13.0 0.00 0.00 0.00 39 1020.6
20260503200700 76 194 8.0 19.0 0.00 0.00 0.00 38 1020.8
20260503200136 76 194 9.0 19.0 0.00 0.00 0.00 37 1020.8
20260503195649 76 175 4.0 12.0 0.00 0.00 0.00 39 1020.7
20260503195148 76 240 7.0 19.0 0.00 0.00 0.00 39 1020.9
20260503194640 76 171 10.0 19.0 0.00 0.00 0.00 40 1020.9
20260503194141 75 169 5.0 11.0 0.00 0.00 0.00 40 1021.0
20260503193653 76 180 5.0 14.0 0.00 0.00 0.00 43 1020.9
20260503193138 75 98 7.0 14.0 0.00 0.00 0.00 41 1021.0
20260503192630 76 200 6.0 14.0 0.00 0.00 0.00 44 1021.2
20260503192203 76 140 8.0 14.0 0.00 0.00 0.00 45 1021.2
20260503191639 75 222 4.0 12.0 0.00 0.00 0.00 43 1021.3
20260503191131 74 103 4.0 12.0 0.00 0.00 0.00 43 1021.4
20260503190629 74 107 6.0 12.0 0.00 0.00 0.00 42 1021.4
20260503190139 75 157 7.0 12.0 0.00 0.00 0.00 44 1021.5
20260503185650 76 209 7.0 11.0 0.00 0.00 0.00 41 1021.7
20260503185140 75 152 3.0 15.0 0.00 0.00 0.00 44 1021.7
20260503184650 75 184 10.0 18.0 0.00 0.00 0.00 43 1021.9
20260503184151 76 154 6.0 18.0 0.00 0.00 0.00 45 1021.9
20260503183640 75 213 5.0 13.0 0.00 0.00 0.00 38 1022.0
20260503183151 74 223 4.0 13.0 0.00 0.00 0.00 41 1022.2
20260503182635 75 174 6.0 11.0 0.00 0.00 0.00 43 1022.2
20260503182146 75 159 4.0 14.0 0.00 0.00 0.00 44 1022.2
20260503181648 74 132 6.0 18.0 0.00 0.00 0.00 44 1022.3
20260503181157 75 204 7.0 18.0 0.00 0.00 0.00 43 1022.5
20260503180709 75 188 9.0 13.0 0.00 0.00 0.00 42 1022.6
20260503180212 75 118 5.0 19.0 0.00 0.00 0.00 44 1022.7
20260503175632 74 142 9.0 19.0 0.00 0.00 0.00 41 1022.9
20260503175143 74 171 6.0 14.0 0.00 0.00 0.00 45 1022.9
20260503174646 73 152 6.0 13.0 0.00 0.00 0.00 42 1022.9
20260503174153 74 111 7.0 19.0 0.00 0.00 0.00 41 1023.0
20260503173703 74 107 6.0 12.0 0.00 0.00 0.00 41 1023.0
20260503173153 74 146 7.0 16.0 0.00 0.00 0.00 40 1023.2
20260503172636 74 153 6.0 15.0 0.00 0.00 0.00 42 1023.2
20260503172147 74 165 8.0 16.0 0.00 0.00 0.00 40 1023.4
20260503171658 74 196 5.0 16.0 0.00 0.00 0.00 42 1023.4
20260503171138 74 119 6.0 14.0 0.00 0.00 0.00 44 1023.4
20260503170650 73 128 6.0 12.0 0.00 0.00 0.00 42 1023.4
20260503170148 73 150 6.0 11.0 0.00 0.00 0.00 42 1023.6
20260503160158 72 150 5.0 13.0 0.00 0.00 0.00 48 1023.9
20260503150649 69 203 2.0 6.0 0.00 0.00 0.00 62 1024.0
20260503150155 68 223 0.0 4.0 0.00 0.00 0.00 66 1023.8
20260503140154 57 42 0.0 0.0 0.00 0.00 0.00 92 1023.7
20260503131141 51 42 0.0 0.0 0.00 0.00 0.00 96 1023.3
20260503130640 50 42 0.0 0.0 0.00 0.00 0.00 96 1023.4
20260503130152 50 42 0.0 0.0 0.00 0.00 0.00 96 1023.3
20260503120151 46 39 0.0 0.0 0.00 0.00 0.00 94 1023.1
20260503110641 46 40 0.0 4.0 0.00 0.00 0.00 93 1022.5
20260503110143 46 89 0.0 0.0 0.00 0.00 0.00 93 1022.3
20260503100135 47 90 0.0 0.0 0.00 0.00 0.00 93 1022.3
20260503090139 48 90 0.0 0.0 0.00 0.00 0.00 92 1021.8
20260503081153 49 90 0.0 0.0 0.00 0.00 0.00 91 1022.1
20260503080637 49 90 0.0 0.0 0.00 0.00 0.00 91 1022.2
20260503080148 49 90 0.0 0.0 0.00 0.00 0.00 91 1022.2
20260503072652 50 90 0.0 0.0 0.00 0.00 0.00 91 1022.5
20260503072133 50 90 0.0 0.0 0.00 0.00 0.00 91 1022.6
20260503071627 50 90 0.0 0.0 0.00 0.00 0.00 91 1022.6
20260503071158 50 90 0.0 0.0 0.00 0.00 0.00 91 1022.8
20260503070639 50 90 0.0 0.0 0.00 0.00 0.00 90 1022.8
20260503070150 50 90 0.0 0.0 0.00 0.00 0.00 91 1022.7
20260503060129 52 90 0.0 0.0 0.00 0.00 0.00 88 1022.7
20260503054643 52 90 0.0 0.0 0.00 0.00 0.00 88 1022.7
20260503054129 53 90 0.0 0.0 0.00 0.00 0.00 88 1022.6
20260503053638 53 90 0.0 0.0 0.00 0.00 0.00 87 1022.8
20260503053137 53 90 0.0 0.0 0.00 0.00 0.00 87 1022.6
20260503052625 53 90 0.0 0.0 0.00 0.00 0.00 87 1022.8
20260503052133 53 90 0.0 0.0 0.00 0.00 0.00 86 1022.7
20260503051632 53 90 0.0 0.0 0.00 0.00 0.00 85 1022.7
20260503051136 53 90 0.0 0.0 0.00 0.00 0.00 85 1022.8
20260503050624 53 90 0.0 0.0 0.00 0.00 0.00 85 1022.7
20260503050153 54 90 0.0 0.0 0.00 0.00 0.00 85 1022.6
20260503045623 54 90 0.0 0.0 0.00 0.00 0.00 84 1022.6
20260503045131 54 90 0.0 0.0 0.00 0.00 0.00 83 1022.5
20260503044642 54 90 0.0 0.0 0.00 0.00 0.00 83 1022.5
20260503044151 55 90 0.0 0.0 0.00 0.00 0.00 83 1022.4
20260503043633 55 90 0.0 0.0 0.00 0.00 0.00 83 1022.4
20260503043138 55 90 0.0 0.0 0.00 0.00 0.00 83 1022.5
20260503042710 55 90 0.0 0.0 0.00 0.00 0.00 83 1022.7
20260503042200 55 90 0.0 0.0 0.00 0.00 0.00 82 1022.7
20260503041640 56 90 0.0 0.0 0.00 0.00 0.00 82 1022.8
20260503041150 56 90 0.0 0.0 0.00 0.00 0.00 81 1022.7
20260503040632 56 90 0.0 0.0 0.00 0.00 0.00 80 1022.6
20260503040139 57 90 0.0 0.0 0.00 0.00 0.00 79 1022.6
20260503035650 57 90 0.0 0.0 0.00 0.00 0.00 79 1022.4
20260503035134 57 90 0.0 0.0 0.00 0.00 0.00 79 1022.3
20260503034646 57 90 0.0 0.0 0.00 0.00 0.00 78 1022.3
20260503034213 57 90 0.0 0.0 0.00 0.00 0.00 77 1022.3
20260503033634 58 90 0.0 0.0 0.00 0.00 0.00 76 1022.4
20260503033145 58 90 0.0 0.0 0.00 0.00 0.00 76 1022.3
20260503032648 58 90 0.0 0.0 0.00 0.00 0.00 75 1022.5
20260503032138 59 90 0.0 0.0 0.00 0.00 0.00 74 1022.3
20260503031641 59 90 0.0 1.0 0.00 0.00 0.00 73 1022.2
20260503031152 60 90 1.0 2.0 0.00 0.00 0.00 71 1022.2
20260503030642 60 90 1.0 2.0 0.00 0.00 0.00 69 1022.2
20260503030155 61 90 1.0 2.0 0.00 0.00 0.00 69 1022.0
20260503025658 61 90 1.0 2.0 0.00 0.00 0.00 68 1021.9
20260503025145 61 90 1.0 2.0 0.00 0.00 0.00 67 1021.8
20260503024652 62 90 1.0 2.0 0.00 0.00 0.00 66 1021.7
20260503024133 62 90 1.0 4.0 0.00 0.00 0.00 65 1021.7
20260503023644 63 90 2.0 3.0 0.00 0.00 0.00 64 1021.7
20260503023149 64 91 2.0 2.0 0.00 0.00 0.00 62 1021.8
20260503022638 64 91 1.0 2.0 0.00 0.00 0.00 61 1021.7
20260503022148 64 91 1.0 5.0 0.00 0.00 0.00 60 1021.4
20260503021631 64 91 2.0 5.0 0.00 0.00 0.00 58 1021.3
20260503021138 65 91 2.0 5.0 0.00 0.00 0.00 57 1021.2
20260503020649 65 91 3.0 5.0 0.00 0.00 0.00 57 1021.1
20260503020131 65 93 3.0 6.0 0.00 0.00 0.00 56 1021.0
20260503015642 65 94 3.0 6.0 0.00 0.00 0.00 56 1020.9
20260503015144 66 95 3.0 5.0 0.00 0.00 0.00 55 1020.9
20260503014654 66 98 3.0 6.0 0.00 0.00 0.00 55 1020.8
20260503014144 66 97 4.0 5.0 0.00 0.00 0.00 54 1020.7
20260503013652 67 95 3.0 5.0 0.00 0.00 0.00 53 1020.7
20260503013132 67 94 4.0 6.0 0.00 0.00 0.00 52 1020.7
20260503012704 68 93 3.0 6.0 0.00 0.00 0.00 51 1020.7
20260503012133 68 94 3.0 6.0 0.00 0.00 0.00 50 1020.6
20260503011640 69 95 3.0 6.0 0.00 0.00 0.00 49 1020.5
20260503011151 69 75 3.0 6.0 0.00 0.00 0.00 48 1020.5
20260503010633 69 74 4.0 7.0 0.00 0.00 0.00 47 1020.4
20260503010145 70 73 4.0 7.0 0.00 0.00 0.00 46 1020.3
20260503005656 70 67 5.0 7.0 0.00 0.00 0.00 45 1020.3
20260503005138 71 53 5.0 9.0 0.00 0.00 0.00 44 1020.3
20260503004649 71 74 5.0 9.0 0.00 0.00 0.00 44 1020.3
20260503004131 71 50 3.0 7.0 0.00 0.00 0.00 43 1020.3
20260503003641 72 34 4.0 7.0 0.00 0.00 0.00 42 1020.1
20260503003143 72 52 3.0 9.0 0.00 0.00 0.00 41 1020.1
20260503002634 72 39 6.0 9.0 0.00 0.00 0.00 40 1020.2
20260503002157 72 13 2.0 7.0 0.00 0.00 0.00 41 1020.3
20260503001639 72 68 4.0 7.0 0.00 0.00 0.00 40 1020.3
20260503001206 72 72 4.0 9.0 0.00 0.00 0.00 40 1020.3
20260503000634 73 62 5.0 9.0 0.00 0.00 0.00 40 1020.3
20260503000127 73 36 3.0 7.0 0.00 0.00 0.00 40 1020.2
20260502235638 73 61 4.0 7.0 0.00 0.00 0.00 40 1020.2
20260502235143 73 41 3.0 7.0 0.00 0.00 0.00 41 1020.3
20260502234655 73 82 4.0 10.0 0.00 0.00 0.00 41 1020.2
20260502234137 73 33 6.0 10.0 0.00 0.00 0.00 40 1020.2
20260502233648 73 90 6.0 11.0 0.00 0.00 0.00 39 1020.2
20260502233127 73 61 7.0 13.0 0.00 0.00 0.00 39 1020.2
20260502232640 73 29 5.0 10.0 0.00 0.00 0.00 39 1020.1
20260502232152 73 67 5.0 13.0 0.00 0.00 0.00 41 1020.2
20260502231656 73 28 8.0 13.0 0.00 0.00 0.00 39 1020.3
20260502231146 73 61 5.0 12.0 0.00 0.00 0.00 40 1020.3
20260502230657 74 15 4.0 12.0 0.00 0.00 0.00 42 1020.3
20260502230133 74 24 7.0 10.0 0.00 0.00 0.00 39 1020.2
20260502225704 74 24 2.0 8.0 0.00 0.00 0.00 42 1020.1
20260502225134 73 46 5.0 14.0 0.00 0.00 0.00 40 1020.1
20260502224636 73 32 9.0 14.0 0.00 0.00 0.00 39 1020.2
20260502224153 73 28 6.0 13.0 0.00 0.00 0.00 41 1020.0
20260502223636 74 24 7.0 13.0 0.00 0.00 0.00 40 1020.0
20260502223149 74 339 2.0 10.0 0.00 0.00 0.00 39 1020.0
20260502222632 74 26 6.0 16.0 0.00 0.00 0.00 40 1020.1
20260502222143 73 58 8.0 16.0 0.00 0.00 0.00 38 1020.1
20260502221713 73 22 5.0 16.0 0.00 0.00 0.00 39 1020.0
20260502221156 74 34 8.0 16.0 0.00 0.00 0.00 41 1020.1
20260502220706 74 344 7.0 13.0 0.00 0.00 0.00 41 1020.1
20260502220135 73 27 5.0 11.0 0.00 0.00 0.00 42 1020.1
20260502215632 73 67 7.0 11.0 0.00 0.03 0.00 39 1020.1
20260502215145 73 74 4.0 12.0 0.00 0.03 0.00 40 1020.2
20260502214627 73 5 5.0 18.0 0.00 0.03 0.00 41 1020.2
20260502214138 73 30 8.0 15.0 0.00 0.03 0.00 43 1020.3
20260502213650 73 19 6.0 14.0 0.00 0.03 0.00 41 1020.3
20260502213131 73 25 9.0 15.0 0.00 0.03 0.00 40 1020.4
20260502212642 73 40 9.0 15.0 0.00 0.03 0.00 42 1020.4
20260502212154 73 36 4.0 18.0 0.00 0.03 0.00 42 1020.5
20260502211637 74 30 8.0 18.0 0.00 0.03 0.00 40 1020.7
20260502211148 73 34 5.0 14.0 0.00 0.03 0.00 44 1020.7
20260502210632 72 30 8.0 16.0 0.00 0.03 0.00 42 1020.8
20260502210141 73 34 9.0 16.0 0.00 0.03 0.00 41 1020.9
20260502205654 72 28 10.0 15.0 0.00 0.09 0.00 42 1021.0
20260502205135 73 62 8.0 14.0 0.00 0.09 0.00 43 1021.0
20260502204644 73 338 6.0 14.0 0.00 0.09 0.00 43 1020.9
20260502204146 72 313 5.0 16.0 0.00 0.09 0.00 47 1021.0